Ogden, UT

4:27 AM MST on February 18, 2018 (GMT -0700)
Ogden-Hinckley

Weather History for KOGD - November, 2013

Change the Weather History Date:

Friday, November 15, 2013

  Actual Average Record
Temperature  
Mean Temperature 36 °F -  
Max Temperature 41 °F 48 °F 72 °F (1954)
Min Temperature 30 °F 27 °F -3 °F (1955)
Degree Days  
Heating Degree Days 28    
Moisture  
Dew Point 31 °F    
Average Humidity 83    
Maximum Humidity 93    
Minimum Humidity 51    
Precipitation  
Precipitation 0.08 in - - ()
Sea Level Pressure  
Sea Level Pressure 29.74 in    
Wind  
Wind Speed 7 mph (WNW)    
Max Wind Speed 17 mph    
Max Gust Speed 24 mph    
Visibility 7 miles    
Events Rain , Snow    
Averages and records for this station are not official NWS values.
T = Trace of Precipitation, MM = Missing Value Source: NWS Daily Summary

Daily Weather History Graph

Daily Weather History Graph

Search for Another Location

Airport or City:

Trip Planner

Search our weather history database for the weather conditions in past years. The results will help you decide how hot, cold, wet, or windy it might be!

Date:

Astronomy

Nov. 15, 2013 Rise Set
Actual Time 7:16 AM MST 5:08 PM MST
Civil Twilight 6:46 AM MST 5:38 PM MST
Nautical Twilight 6:13 AM MST 6:11 PM MST
Astronomical Twilight 5:40 AM MST 6:44 PM MST
Moon 4:08 PM MST (11/15) 5:15 AM MST (11/15)
Length of Visible Light 10h 51m
Length of Day
9h 52m
Waxing Gibbous, 97% of the Moon is Illuminated
Nov 15
Waxing Gibbous
Nov 17
Full
Nov 25
Last Quarter
Dec 2
New
Dec 9
First Quarter

Hourly Weather History & Observations

Time (MST) Temp. Windchill Dew Point Humidity Pressure Visibility Wind Dir Wind Speed Gust Speed Precip Events Conditions
12:53 AM 41.0 °F 37.1 °F 24.1 °F 51% 29.68 in 10.0 mi SW 5.8 mph - N/A   Overcast
1:53 AM 41.0 °F 36.4 °F 28.0 °F 60% 29.69 in 10.0 mi North 6.9 mph - N/A   Overcast
2:53 AM 39.9 °F 31.1 °F 32.0 °F 73% 29.68 in 10.0 mi North 17.3 mph 24.2 mph N/A   Overcast
3:53 AM 39.0 °F 32.3 °F 32.0 °F 76% 29.68 in 10.0 mi NNW 10.4 mph - N/A   Scattered Clouds
4:53 AM 37.0 °F 29.3 °F 33.1 °F 86% 29.70 in 10.0 mi NNW 11.5 mph - N/A   Overcast
5:39 AM 37.4 °F 33.8 °F 33.8 °F 87% 29.75 in 10.0 mi NW 4.6 mph - N/A   Mostly Cloudy
5:53 AM 37.0 °F 31.6 °F 33.1 °F 86% 29.73 in 10.0 mi NW 6.9 mph - N/A   Overcast
6:16 AM 35.6 °F 29.2 °F 33.8 °F 93% 29.75 in 10.0 mi NW 8.1 mph - N/A   Overcast
6:53 AM 36.0 °F 31.1 °F 32.0 °F 86% 29.74 in 10.0 mi NW 5.8 mph - N/A   Overcast
7:44 AM 33.8 °F 27.7 °F 30.2 °F 87% 29.77 in 2.0 mi NW 6.9 mph - 0.02 in Snow Light Snow
7:51 AM 33.8 °F 27.7 °F 30.2 °F 87% 29.77 in 1.0 mi NW 6.9 mph - 0.03 in Snow Light Snow
7:53 AM 33.1 °F 26.9 °F 30.9 °F 92% 29.76 in 1.0 mi NW 6.9 mph - 0.03 in Snow Light Snow
8:00 AM 33.8 °F 28.6 °F 30.2 °F 87% 29.77 in 0.8 mi NW 5.8 mph - 0.01 in Snow Light Snow
8:30 AM 33.8 °F 30.8 °F 30.2 °F 87% 29.77 in 1.2 mi WNW 3.5 mph - 0.02 in Snow Light Snow
8:43 AM 32.0 °F - 30.2 °F 93% 29.77 in 0.8 mi Calm Calm - 0.03 in Snow Light Snow
8:53 AM 33.1 °F - 30.9 °F 92% 29.76 in 1.2 mi Calm Calm - 0.03 in Snow Light Snow
9:37 AM 33.8 °F 29.6 °F 30.2 °F 87% 29.78 in 2.0 mi NW 4.6 mph - 0.02 in Snow Light Snow
9:44 AM 33.8 °F 30.8 °F 32.0 °F 93% 29.78 in 1.5 mi WNW 3.5 mph - 0.02 in Snow Light Snow
9:53 AM 34.0 °F 28.0 °F 32.0 °F 92% 29.77 in 3.0 mi NNW 6.9 mph - 0.02 in Snow Light Snow
10:15 AM 33.8 °F 27.7 °F 32.0 °F 93% 29.78 in 7.0 mi NNW 6.9 mph - 0.00 in   Overcast
10:44 AM 35.6 °F 27.5 °F 32.0 °F 87% 29.79 in 8.0 mi NNW 11.5 mph - 0.00 in Snow Light Snow
10:53 AM 34.0 °F 25.0 °F 32.0 °F 92% 29.79 in 4.0 mi NNW 12.7 mph - 0.00 in Snow Light Snow
11:53 AM 36.0 °F 29.6 °F 33.1 °F 89% 29.78 in 10.0 mi NNW 8.1 mph - 0.00 in Rain Light Rain
12:20 PM 35.6 °F 28.6 °F 33.8 °F 93% 29.78 in 10.0 mi NW 9.2 mph - 0.00 in   Overcast
12:31 PM 37.4 °F 33.8 °F 33.8 °F 87% 29.78 in 10.0 mi NW 4.6 mph - 0.00 in   Overcast
12:53 PM 37.9 °F - 30.0 °F 73% 29.74 in 10.0 mi Calm Calm - 0.00 in   Overcast
1:53 PM 37.9 °F 32.7 °F 32.0 °F 79% 29.74 in 10.0 mi West 6.9 mph - N/A   Overcast
2:53 PM 39.0 °F 35.7 °F 30.0 °F 70% 29.73 in 10.0 mi SW 4.6 mph - N/A   Mostly Cloudy
3:53 PM 39.9 °F 37.8 °F 30.0 °F 68% 29.72 in 10.0 mi SW 3.5 mph - N/A   Partly Cloudy
4:53 PM 39.0 °F 34.0 °F 28.9 °F 67% 29.72 in 10.0 mi SSE 6.9 mph - N/A   Overcast
5:53 PM 35.1 °F 30.1 °F 30.0 °F 82% 29.72 in 10.0 mi South 5.8 mph - N/A   Clear
6:53 PM 34.0 °F 28.0 °F 28.9 °F 82% 29.73 in 10.0 mi South 6.9 mph - N/A   Clear
7:53 PM 33.1 °F 28.7 °F 28.9 °F 85% 29.73 in 10.0 mi SSE 4.6 mph - N/A   Clear
8:53 PM 33.1 °F 26.1 °F 28.0 °F 82% 29.72 in 10.0 mi SSE 8.1 mph - N/A   Clear
9:53 PM 33.1 °F 24.9 °F 28.0 °F 82% 29.71 in 10.0 mi SSE 10.4 mph - N/A   Clear
10:53 PM 33.1 °F 25.5 °F 28.0 °F 82% 29.70 in 10.0 mi South 9.2 mph - N/A   Clear
11:53 PM 30.9 °F 22.2 °F 26.1 °F 82% 29.67 in 10.0 mi South 10.4 mph - N/A   Clear